Starlink 31723

operational
NORAD ID: 59553 Int'l Des: 2024-074 Owner: SPXS Country: US Constellation: starlink
LEOCIRCULAR

About Starlink 31723

Description loading...

Live Position

Loading 3D Globe...

Upcoming Passes

Altitude History

Altitude vs Time

uPlot chart will show altitude changes over time

Two-Line Element Set

1 59553U 24074V 25352.66965992 .00001716 00000-0 71859-4 0 9992
2 59553 42.9996 81.0567 0000905 278.2242 81.8507 15.27572417 93626
Epoch: Dec 18, 2025 • Age: 13 hours

Current Status

Altitude 485.8 km
Velocity 7.63 km/s
Sub-Earth Point 38.45°N, 35.19°E
Launch Date Apr 18, 2024
Age 1.6 years
Type internet

Technical Details

Classification Payload
Mass 730.00 kg
Dry Mass 700.00 kg
Total Mass 730.00 kg
Length 0.30 m
Diameter 4.10 m
Span 29.00 m
Shape Box + pan
Manufacturer SPXS
Bus Type Starlink V2M
Phase Status In Orbit
Owner/State SPXS/US

Large Constellations

Loading constellations...